Temp
62 62 62 64 63 48 54 58 52 56 59 54 45 49 48 50 43 44 42 52 56 56 63 66 70 70 70 70 72 75 75 76 76 76 76 77 78 79 79 79 80 80 82 82 82 82 82 82 82 82 80 80 79 78 78 77 78 78 77 77 77 78 77
61 66 63 63 65 63 55 47 54 62 62 57 50 44 36 37 39 39 47 50 44 48 51 65 67 67 68 70 70 73 75 74 74 76 76 77 78 79 80 80 80 81 82 82 83 83 83 83 83 82 81 81 80 80 79 78 78 77 78 78 78 78 77
59 64 61 59 64 67 57 52 64 52 48 50 43 45 39 39 39 36 47 47 48 48 51 60 62 63 65 66 69 69 71 73 74 76 77 77 78 79 79 79 80 81 82 82 82 83 84 84 83 83 83 83 81 81 80 80 79 79 79 79 79 79 78
56 57 56 42 51 63 65 63 58 60 53 46 46 47 40 40 34 40 39 42 46 53 54 60 61 64 65 66 65 67 69 73 75 76 77 77 77 78 79 79 80 81 82 83 83 83 83 83 83 83 84 83 82 82 81 80 81 80 79 79 79 78 79
55 45 49 47 49 48 52 53 50 53 50 55 53 53 49 44 36 33 35 39 45 53 61 62 63 65 66 65 64 66 69 73 77 77 78 77 77 78 79 80 80 81 82 83 84 84 85 84 84 83 83 83 83 83 81 81 80 79 79 80 79 79 79
44 46 54 55 54 54 52 50 48 48 48 44 40 40 49 49 43 38 39 37 42 55 68 65 65 68 67 66 65 65 67 70 75 78 78 78 78 78 79 80 81 81 82 83 84 84 85 84 83 82 83 83 82 82 82 82 82 81 80 80 79 79 79
46 50 55 58 58 58 56 55 50 54 50 48 39 31 37 43 46 50 43 39 47 56 65 66 68 68 68 66 66 65 66 67 69 77 79 79 79 79 80 81 82 82 82 83 83 83 83 84 83 83 83 83 83 83 83 82 82 81 82 81 81 80 79
46 52 54 56 58 55 50 52 55 53 48 50 46 43 44 40 44 36 36 41 46 57 66 66 68 67 67 66 66 64 65 66 68 72 75 74 75 77 80 81 82 82 82 82 82 81 82 82 82 83 83 83 83 83 83 83 82 82 82 82 82 81 80
35 41 44 47 51 53 47 46 50 53 53 53 52 49 45 41 43 44 39 39 43 59 65 66 66 66 64 64 65 65 63 64 66 68 73 74 74 75 77 77 79 80 81 81 80 81 81 82 83 83 83 83 83 83 83 83 83 83 83 83 82 81 81
28 28 26 30 37 42 46 50 50 52 52 50 47 39 40 31 41 42 39 37 47 57 62 62 63 62 61 63 65 66 65 64 64 65 68 68 69 69 70 72 74 76 79 80 79 80 81 82 83 83 83 84 84 84 83 84 83 83 84 84 83 82 81
28 31 35 45 48 43 41 46 48 49 51 51 49 44 38 35 39 40 39 46 46 52 58 58 59 60 58 59 62 63 63 64 65 64 64 66 66 67 69 69 70 70 70 75 77 77 80 82 83 84 83 84 84 83 83 84 84 84 84 83 83 82 81
37 40 42 46 48 43 44 44 46 49 48 48 47 42 39 44 39 30 37 43 47 51 56 57 57 58 58 59 60 62 63 64 64 64 64 65 65 65 66 67 67 68 69 68 72 77 78 80 82 82 84 84 84 84 83 84 84 84 84 83 82 82 81
43 44 44 47 47 47 45 45 45 45 48 46 45 44 46 46 41 38 44 46 46 52 56 57 57 57 57 58 59 62 65 65 64 63 62 62 62 63 64 64 65 66 67 68 68 70 74 80 80 81 83 83 83 84 84 84 84 84 84 83 82 82 81
41 43 44 46 45 45 45 45 46 47 47 47 48 48 50 49 43 45 49 46 48 54 55 58 57 58 58 58 60 61 63 63 63 63 62 62 62 62 62 63 64 65 66 66 67 69 69 70 72 79 81 81 83 83 84 84 84 85 84 83 82 82 81
37 42 45 44 44 43 41 45 46 47 48 48 49 49 50 50 48 49 50 46 46 54 57 58 58 58 59 57 57 56 58 61 62 61 61 62 62 62 62 63 63 64 65 65 66 66 67 69 70 70 73 78 82 84 85 85 84 85 84 82 82 82 81
32 38 42 43 43 43 41 41 44 45 46 44 47 46 49 48 44 46 47 44 43 50 57 58 58 57 55 54 54 55 55 59 60 60 60 60 61 62 62 62 62 63 64 64 65 65 66 68 70 71 70 72 78 83 84 85 85 85 85 84 82 81 82
27 35 40 40 41 38 37 36 43 48 49 49 51 50 50 49 49 45 42 42 48 51 55 54 54 55 54 54 53 54 54 56 58 59 60 60 60 61 61 62 62 62 63 64 64 64 65 67 68 69 70 71 71 73 75 77 80 83 84 84 82 81 82
27 35 38 40 33 25 27 41 51 50 48 49 46 45 47 49 51 47 49 48 51 52 52 51 52 53 53 54 56 57 55 54 56 58 59 60 60 61 60 62 61 62 63 64 64 65 66 67 70 69 71 71 71 72 72 72 73 72 72 73 79 82 81
27 32 36 32 22 28 41 47 51 53 53 52 49 47 48 49 51 52 51 50 50 52 52 53 54 56 57 58 57 58 59 56 56 56 58 58 60 60 60 60 61 61 61 62 62 65 66 68 69 70 70 72 72 72 72 72 72 73 73 73 72 74 78
30 27 27 18 25 36 46 49 50 52 52 50 49 47 48 48 49 50 49 51 51 52 53 54 55 56 58 58 58 58 59 59 56 56 56 58 59 59 61 61 61 61 62 61 62 63 66 67 68 70 70 72 72 73 73 72 72 73 73 73 74 74 76
28 29 25 30 37 39 40 41 42 44 39 42 40 37 44 47 48 48 48 50 52 52 53 54 55 57 58 53 54 59 59 59 59 58 58 59 60 60 61 63 63 63 64 64 64 66 66 66 67 68 69 70 70 73 73 74 74 75 75 74 75 77 79
35 29 26 26 24 22 31 42 46 49 49 48 47 42 39 49 50 50 48 48 50 51 52 52 53 55 52 50 51 56 58 59 59 60 59 60 61 62 62 63 64 64 64 65 65 66 66 67 68 68 69 69 70 71 72 74 73 74 74 75 76 77 79
33 32 25 21 17 25 36 37 43 47 48 49 48 42 36 46 48 49 49 48 50 50 50 50 51 49 44 44 49 54 56 58 59 58 59 59 60 61 62 62 62 63 63 63 64 65 65 65 67 69 69 69 69 70 71 74 75 75 74 75 75 76 77
31 30 26 24 30 26 37 42 44 47 49 48 44 31 32 44 46 49 49 48 50 51 51 51 48 46 41 44 49 57 57 57 57 56 57 58 58 60 62 63 63 63 64 64 63 63 63 64 67 68 70 70 69 69 70 73 74 74 76 76 77 78 79
34 36 30 31 32 40 42 42 46 47 49 46 33 26 40 44 45 48 49 49 51 51 51 50 47 48 50 52 55 58 59 57 56 57 59 59 60 59 61 62 63 62 63 63 63 63 65 65 67 68 69 68 68 69 70 70 71 74 76 77 78 77 77
28 29 29 31 33 39 44 44 46 46 44 32 29 40 44 44 45 49 49 49 50 50 50 50 49 51 53 55 56 57 58 56 56 56 57 57 59 61 62 62 62 62 62 62 63 64 66 67 68 68 68 67 67 67 68 68 71 74 74 75 77 77 73
31 31 30 29 26 39 46 45 44 45 36 35 43 44 45 48 47 47 48 48 49 49 48 51 51 52 53 54 54 55 56 56 56 55 56 55 56 57 58 59 62 62 61 61 62 63 65 66 67 67 68 66 66 67 66 68 70 71 72 74 75 76 76
28 30 28 30 36 39 45 44 36 40 43 45 46 45 43 46 47 46 45 47 49 50 50 50 50 51 51 52 52 53 54 55 57 56 55 55 56 57 59 60 60 62 60 61 62 63 64 65 66 67 66 65 66 66 66 69 69 70 71 73 74 74 76
33 29 32 39 40 42 43 45 42 44 46 47 47 45 44 43 44 47 45 45 48 49 49 49 50 50 51 51 53 52 52 53 54 55 55 54 55 56 57 57 59 60 60 60 61 62 63 64 66 65 65 64 64 64 66 68 68 68 70 72 73 74 75
38 41 42 45 44 44 43 45 46 46 46 47 47 45 43 44 45 46 45 47 47 48 49 48 49 49 51 51 51 52 52 52 53 55 55 54 54 56 58 58 59 59 59 60 60 61 62 65 65 64 64 64 62 64 66 67 68 68 69 71 72 73 74
34 29 39 40 40 42 43 44 46 46 46 45 46 45 44 45 46 47 47 47 48 48 49 48 47 48 51 50 51 52 52 51 52 53 53 54 54 54 55 57 59 59 59 58 59 60 61 63 64 64 63 64 64 65 65 66 67 68 70 70 71 71 72
32 35 38 39 41 42 44 43 42 42 44 46 46 46 46 46 47 47 48 48 48 49 48 48 47 48 49 49 50 51 51 52 52 52 53 53 53 54 54 55 57 58 58 57 58 59 60 62 63 63 63 63 64 64 65 66 67 67 67 68 68 69 70
36 39 41 42 41 42 43 43 43 44 43 44 45 46 46 46 46 47 48 49 49 49 48 49 48 47 48 48 49 50 51 51 51 52 53 53 53 54 53 55 57 56 57 58 59 59 60 61 62 62 62 63 63 63 64 65 65 64 64 66 67 67 69
31 33 37 37 34 35 38 42 44 44 44 44 44 45 45 45 45 46 46 47 49 49 50 49 49 47 48 49 49 49 50 51 51 51 52 53 53 54 54 55 55 56 58 58 58 59 60 61 61 61 61 62 62 63 64 65 64 62 63 64 65 66 68
32 39 40 40 41 39 42 44 45 45 45 44 43 43 44 45 46 46 46 45 46 47 49 50 49 48 48 48 49 49 50 51 52 52 52 52 53 53 55 54 54 55 56 58 59 59 60 60 60 61 61 61 62 63 64 64 64 63 63 63 64 66 68
41 40 40 41 40 39 42 42 43 44 45 44 44 44 45 46 46 46 46 46 45 46 48 49 50 49 49 49 49 49 50 51 51 52 52 53 53 54 55 54 55 55 56 57 58 58 58 59 59 60 60 61 61 63 64 64 64 63 63 63 63 65 67
40 41 42 42 42 42 43 43 44 44 46 47 45 44 45 46 47 48 47 47 49 49 48 48 49 50 49 49 49 49 49 50 52 53 55 57 57 56 55 55 55 55 56 57 57 57 58 58 59 60 59 60 61 62 62 63 63 63 63 64 64 65 66
MSLP
1011.40 1011.72 1011.16 1011.16 1010.08 1013.24 1010.92 1010.68 1012.52 1012.20 1011.48 1011.12 1012.36 1013.76 1013.92 1013.44 1014.16 1014.64 1013.84 1012.08 1011.44 1009.36 1008.32 1008.80 1008.36 1008.12 1007.80 1007.60 1007.16 1006.52 1006.24 1006.28 1006.56 1006.96 1006.92 1006.92 1006.96 1007.16 1007.44 1007.72 1007.84 1008.04 1008.20 1008.44 1008.64 1009.04 1009.44 1009.80 1010.20 1010.40 1010.64 1010.92 1011.36 1011.88 1012.32 1012.76 1013.00 1013.24 1013.48 1013.76 1014.04 1014.32 1014.68
1011.28 1010.88 1010.68 1010.96 1010.84 1011.08 1011.52 1013.20 1012.60 1010.56 1010.12 1010.36 1011.44 1014.36 1014.52 1015.16 1016.68 1014.68 1013.40 1013.00 1012.56 1012.04 1012.64 1009.88 1009.76 1009.60 1008.92 1008.32 1008.08 1007.36 1006.60 1006.48 1006.80 1006.48 1006.40 1006.32 1006.36 1006.32 1006.28 1006.64 1007.08 1007.40 1007.64 1007.96 1008.24 1008.44 1008.76 1009.16 1009.48 1009.88 1010.24 1010.52 1010.96 1011.36 1011.80 1012.36 1012.80 1013.20 1013.28 1013.52 1013.84 1014.12 1014.52
1012.44 1011.20 1010.88 1010.92 1010.52 1010.56 1012.32 1012.64 1010.64 1011.64 1013.20 1013.20 1012.84 1012.88 1016.64 1016.68 1016.80 1015.32 1013.28 1014.76 1014.00 1015.76 1015.36 1012.40 1011.80 1011.40 1010.48 1009.28 1008.32 1008.00 1007.28 1006.88 1006.64 1006.12 1005.92 1005.84 1005.88 1006.24 1006.64 1006.88 1007.04 1007.16 1007.28 1007.48 1007.72 1007.96 1008.16 1008.56 1008.92 1009.32 1009.76 1010.24 1010.76 1011.16 1011.40 1011.72 1012.20 1012.44 1012.80 1013.16 1013.48 1013.80 1014.04
1013.52 1012.80 1013.00 1016.24 1014.56 1011.32 1010.96 1010.92 1012.60 1012.40 1012.76 1014.08 1014.00 1013.00 1013.44 1013.56 1016.16 1016.32 1015.08 1013.80 1016.04 1014.32 1014.32 1013.12 1012.72 1011.52 1010.80 1010.12 1009.32 1008.56 1007.64 1006.36 1005.72 1005.64 1005.56 1005.76 1006.12 1006.20 1006.24 1006.36 1006.40 1006.44 1006.56 1006.80 1007.16 1007.52 1007.92 1008.28 1008.76 1009.12 1009.52 1009.96 1010.52 1010.80 1011.24 1011.60 1011.80 1012.16 1012.60 1012.88 1013.08 1013.52 1013.68
1012.92 1015.36 1015.56 1016.16 1015.72 1015.80 1014.48 1014.40 1015.80 1014.68 1015.40 1013.56 1013.60 1013.64 1013.44 1013.64 1015.12 1015.48 1014.88 1016.96 1016.16 1013.60 1012.20 1012.56 1012.44 1011.32 1010.84 1010.60 1010.28 1009.20 1007.80 1006.16 1005.00 1004.56 1004.76 1005.12 1005.40 1005.60 1005.68 1005.76 1006.00 1006.16 1006.28 1006.44 1006.72 1007.00 1007.36 1007.76 1008.24 1008.76 1009.20 1009.64 1009.96 1010.44 1010.96 1011.24 1011.80 1012.12 1012.36 1012.48 1012.76 1013.12 1013.44
1016.76 1016.32 1015.04 1015.24 1015.24 1014.96 1015.64 1016.36 1017.60 1017.32 1016.96 1016.52 1015.40 1014.64 1014.04 1014.84 1014.76 1015.80 1015.48 1018.36 1015.44 1012.68 1011.04 1012.00 1011.64 1010.84 1010.88 1010.44 1010.04 1009.44 1008.24 1006.96 1005.00 1004.40 1004.20 1004.32 1004.84 1004.80 1004.88 1005.12 1005.40 1005.76 1006.00 1006.16 1006.40 1006.76 1007.16 1007.72 1008.24 1008.64 1008.84 1009.28 1009.80 1010.24 1010.44 1010.88 1011.32 1011.64 1012.00 1012.36 1012.56 1012.84 1013.12
1016.76 1016.28 1015.60 1015.00 1014.52 1014.92 1015.72 1015.88 1017.64 1016.60 1016.96 1017.04 1018.56 1018.48 1016.80 1017.16 1015.96 1016.12 1015.76 1015.16 1015.60 1011.52 1011.36 1011.28 1011.00 1010.88 1010.88 1010.48 1009.92 1009.68 1008.68 1007.48 1006.40 1004.40 1004.12 1003.88 1003.72 1004.04 1004.32 1004.56 1004.84 1005.12 1005.44 1005.72 1006.04 1006.48 1006.92 1007.24 1007.64 1008.12 1008.60 1008.96 1009.32 1009.68 1010.08 1010.48 1010.96 1011.24 1011.36 1011.68 1012.00 1012.44 1012.88
1016.92 1015.84 1015.52 1015.56 1015.24 1015.28 1016.04 1016.48 1016.80 1017.00 1018.00 1017.96 1018.52 1018.92 1017.72 1018.80 1017.28 1016.72 1016.44 1015.52 1014.52 1011.48 1011.20 1011.20 1011.04 1011.20 1011.08 1010.56 1010.20 1010.04 1009.04 1008.00 1006.88 1005.32 1003.96 1004.48 1004.76 1004.76 1004.68 1004.72 1004.92 1005.12 1005.36 1005.72 1006.20 1006.68 1006.96 1007.20 1007.52 1007.88 1008.12 1008.48 1008.88 1009.28 1009.64 1010.08 1010.56 1010.76 1011.08 1011.40 1011.72 1012.12 1012.52
1017.88 1017.32 1016.40 1015.48 1016.04 1016.60 1018.64 1018.72 1017.80 1017.44 1017.24 1017.16 1017.08 1017.20 1017.24 1018.32 1018.84 1018.96 1018.84 1016.92 1016.40 1012.76 1011.76 1011.60 1011.44 1011.44 1011.52 1011.20 1010.60 1010.12 1009.84 1009.04 1008.08 1006.88 1005.48 1004.76 1004.80 1005.04 1005.40 1005.60 1005.68 1005.76 1005.96 1006.16 1006.16 1006.16 1006.44 1006.68 1006.92 1007.32 1007.76 1008.16 1008.48 1008.84 1009.20 1009.64 1009.96 1010.16 1010.60 1010.92 1011.40 1011.80 1012.20
1021.24 1021.20 1020.56 1021.28 1020.28 1019.28 1019.04 1018.28 1018.08 1017.88 1017.68 1017.88 1017.68 1018.88 1018.56 1018.92 1018.52 1018.36 1018.08 1018.20 1016.00 1013.88 1012.56 1012.44 1012.28 1012.44 1012.28 1011.60 1010.84 1010.28 1010.24 1010.12 1009.64 1008.88 1008.04 1007.76 1007.48 1007.08 1006.28 1006.00 1006.00 1006.32 1006.36 1006.48 1006.56 1006.52 1006.44 1006.44 1006.64 1006.96 1007.32 1007.64 1008.00 1008.40 1008.72 1008.92 1009.48 1009.88 1010.24 1010.52 1010.96 1011.52 1011.92
1020.76 1020.12 1020.16 1019.28 1019.28 1019.68 1019.92 1018.96 1018.80 1018.40 1017.88 1017.60 1017.84 1018.36 1019.20 1019.88 1019.04 1018.64 1016.96 1017.56 1017.08 1014.84 1013.76 1013.68 1013.32 1013.24 1013.32 1012.68 1011.76 1011.32 1011.08 1010.72 1010.28 1010.16 1009.80 1009.32 1009.08 1008.76 1008.52 1008.04 1007.60 1006.92 1006.92 1006.80 1006.96 1007.24 1007.24 1007.28 1007.12 1007.20 1007.40 1007.64 1007.88 1008.20 1008.56 1008.72 1008.96 1009.40 1009.76 1010.20 1010.68 1011.20 1011.56
1020.12 1019.96 1020.16 1019.52 1019.56 1020.04 1019.60 1019.56 1019.20 1018.52 1018.36 1017.92 1018.20 1019.04 1019.52 1018.28 1018.80 1018.68 1016.28 1017.16 1017.24 1015.76 1014.92 1014.68 1014.44 1013.84 1013.60 1013.32 1013.00 1012.36 1011.76 1011.60 1011.44 1011.32 1010.84 1009.96 1009.68 1009.68 1009.32 1009.00 1008.92 1008.80 1008.52 1008.08 1007.24 1006.84 1007.12 1007.28 1007.32 1007.44 1007.48 1007.64 1007.92 1008.20 1008.52 1008.60 1008.80 1009.16 1009.48 1009.96 1010.44 1010.84 1011.20
1020.40 1020.08 1019.88 1019.68 1019.68 1019.60 1019.72 1019.64 1019.40 1019.12 1018.32 1018.20 1018.68 1018.24 1017.84 1018.04 1019.24 1019.28 1016.60 1016.56 1017.24 1015.68 1015.52 1015.12 1015.20 1014.80 1014.52 1014.16 1013.88 1013.04 1012.32 1011.80 1011.52 1011.32 1011.20 1011.04 1010.96 1010.76 1010.56 1010.48 1010.08 1009.72 1009.52 1009.16 1008.84 1008.28 1007.36 1006.92 1007.12 1007.24 1007.32 1007.52 1007.72 1007.96 1008.16 1008.44 1008.68 1008.92 1009.08 1009.64 1010.12 1010.48 1010.84
1020.24 1019.88 1019.72 1019.68 1020.08 1019.96 1019.76 1019.60 1019.16 1018.76 1018.24 1018.00 1017.76 1017.60 1017.28 1017.60 1017.60 1016.72 1016.44 1016.68 1016.52 1016.08 1015.92 1015.36 1015.40 1015.08 1014.84 1014.52 1013.92 1013.36 1012.64 1012.68 1012.52 1012.16 1011.88 1011.84 1011.76 1011.68 1011.56 1011.36 1011.04 1010.60 1010.24 1009.92 1009.60 1009.20 1008.92 1008.48 1007.80 1007.20 1007.12 1007.28 1007.40 1007.76 1008.04 1008.20 1008.48 1008.64 1009.00 1009.48 1009.84 1010.16 1010.52
1020.56 1020.12 1019.80 1019.84 1019.96 1020.04 1020.16 1019.32 1018.88 1018.48 1018.08 1017.88 1017.48 1017.40 1017.00 1016.88 1016.92 1016.36 1016.20 1016.56 1016.24 1015.68 1015.56 1015.28 1015.24 1015.32 1015.12 1014.56 1014.44 1014.68 1014.28 1013.36 1013.08 1013.08 1012.92 1012.56 1012.32 1012.16 1012.00 1011.80 1011.60 1011.28 1010.84 1010.52 1010.16 1010.00 1009.84 1009.48 1009.04 1008.60 1007.88 1007.16 1007.08 1007.28 1007.52 1007.80 1008.12 1008.24 1008.64 1009.20 1009.52 1009.80 1010.08
1021.24 1020.64 1020.44 1020.04 1019.88 1019.76 1019.72 1019.40 1018.72 1018.40 1018.32 1018.36 1017.44 1017.92 1016.92 1016.72 1016.80 1015.96 1016.28 1016.84 1017.00 1016.84 1015.96 1015.48 1015.52 1015.60 1015.64 1015.76 1015.56 1015.32 1015.12 1014.28 1013.72 1013.72 1013.56 1013.36 1012.96 1012.56 1012.32 1012.20 1012.12 1011.72 1011.36 1011.08 1010.80 1010.68 1010.36 1010.00 1009.60 1009.08 1008.52 1008.04 1007.28 1007.16 1007.16 1007.36 1007.52 1007.72 1008.16 1008.60 1009.04 1009.40 1009.52
1021.68 1021.08 1020.64 1020.28 1020.12 1019.72 1019.56 1019.08 1018.48 1018.40 1017.96 1017.72 1017.36 1017.44 1017.52 1017.80 1017.60 1017.16 1017.04 1018.28 1018.60 1017.56 1016.80 1016.52 1016.20 1016.12 1016.16 1016.08 1016.08 1015.84 1015.48 1014.96 1014.48 1014.36 1014.16 1013.80 1013.40 1012.92 1012.64 1012.48 1012.44 1012.24 1011.96 1011.64 1011.32 1010.96 1010.64 1010.28 1009.96 1009.40 1008.88 1008.40 1008.32 1008.08 1007.68 1007.56 1007.60 1007.96 1008.12 1008.24 1008.64 1009.00 1009.08
1021.52 1021.24 1020.76 1020.32 1020.72 1021.80 1020.52 1018.52 1018.16 1017.96 1018.40 1017.96 1018.20 1017.84 1018.36 1018.16 1017.64 1017.96 1018.20 1018.44 1017.84 1017.52 1017.28 1017.40 1017.00 1016.76 1016.72 1016.52 1016.16 1015.88 1015.80 1015.52 1015.00 1014.88 1014.68 1014.12 1013.72 1013.24 1012.96 1012.76 1012.72 1012.48 1012.08 1011.80 1011.48 1011.08 1010.84 1010.44 1009.96 1009.60 1008.96 1008.68 1008.40 1008.04 1008.04 1007.84 1007.52 1008.16 1009.32 1010.28 1009.84 1008.88 1008.80
1021.68 1021.08 1020.96 1021.20 1022.28 1021.08 1018.64 1018.40 1017.96 1017.52 1017.64 1017.48 1017.96 1018.32 1018.68 1018.68 1018.08 1017.72 1017.80 1018.04 1017.96 1017.76 1017.64 1017.40 1017.04 1016.60 1016.56 1016.12 1015.96 1015.60 1015.36 1015.28 1015.36 1015.44 1015.12 1014.60 1014.04 1013.76 1013.44 1013.36 1013.24 1012.88 1012.48 1012.04 1011.64 1011.04 1010.68 1010.48 1010.04 1009.68 1009.32 1008.80 1008.44 1008.24 1007.84 1007.80 1007.72 1007.64 1007.96 1008.84 1010.20 1010.64 1009.76
1021.60 1021.92 1021.76 1022.68 1019.84 1019.72 1019.12 1018.12 1017.64 1017.56 1017.64 1018.08 1017.96 1018.24 1018.32 1018.56 1018.68 1018.36 1018.32 1018.04 1018.00 1017.72 1017.60 1017.32 1016.88 1016.52 1016.36 1016.16 1015.84 1015.76 1015.60 1015.56 1015.72 1015.56 1015.40 1014.76 1014.40 1014.28 1013.96 1013.76 1013.72 1013.44 1012.92 1012.48 1012.00 1011.48 1010.76 1010.60 1010.32 1010.08 1009.76 1009.16 1008.80 1008.36 1007.96 1007.96 1008.16 1008.40 1008.24 1008.16 1008.16 1008.84 1009.68
1022.00 1022.00 1021.88 1021.12 1019.84 1019.64 1018.88 1018.92 1019.48 1019.32 1019.44 1019.36 1019.36 1019.32 1018.40 1018.64 1018.60 1018.76 1018.84 1018.32 1018.00 1017.80 1017.60 1017.40 1016.72 1016.12 1016.00 1016.36 1016.44 1015.96 1015.92 1015.72 1015.60 1015.76 1015.64 1014.96 1014.32 1014.32 1014.24 1013.96 1013.76 1013.52 1013.20 1012.52 1011.76 1011.32 1010.96 1010.68 1010.72 1010.32 1009.76 1009.28 1009.20 1008.64 1008.32 1008.16 1008.16 1008.24 1008.56 1008.88 1008.64 1008.24 1008.32
1020.92 1021.64 1022.12 1021.64 1021.44 1022.40 1020.48 1020.04 1019.60 1019.48 1019.52 1019.36 1019.24 1019.64 1019.16 1018.36 1018.40 1018.56 1018.68 1018.68 1018.08 1018.00 1017.76 1017.56 1017.04 1016.04 1016.16 1016.92 1016.80 1016.52 1016.08 1015.72 1015.64 1015.24 1015.04 1014.88 1014.52 1014.16 1014.16 1014.16 1013.88 1013.52 1013.24 1012.80 1012.20 1011.68 1011.40 1011.08 1010.64 1010.04 1009.56 1009.24 1009.24 1008.96 1008.60 1008.32 1008.28 1008.36 1008.44 1008.56 1008.40 1008.28 1008.04
1021.64 1021.84 1022.36 1022.00 1022.04 1020.56 1020.24 1019.96 1019.84 1019.52 1019.32 1019.44 1019.40 1019.76 1019.64 1018.40 1018.88 1018.76 1018.68 1018.60 1017.96 1017.72 1017.72 1017.72 1017.28 1017.28 1017.68 1017.72 1017.40 1016.64 1016.32 1015.92 1015.64 1015.52 1015.12 1014.96 1014.60 1014.36 1014.16 1013.92 1013.96 1013.80 1013.36 1013.00 1012.56 1011.96 1011.36 1011.08 1011.00 1010.32 1009.76 1009.32 1009.24 1009.20 1008.88 1008.56 1008.28 1008.32 1008.24 1008.04 1007.96 1007.92 1007.80
1021.32 1021.48 1021.84 1022.08 1020.92 1020.52 1020.28 1020.36 1019.92 1019.24 1018.96 1019.00 1018.96 1020.68 1019.68 1019.00 1019.28 1018.96 1018.80 1018.68 1018.32 1017.72 1017.36 1017.48 1017.64 1018.00 1018.56 1018.12 1017.36 1016.40 1016.16 1015.96 1015.76 1015.72 1015.48 1015.08 1014.76 1014.36 1014.20 1013.88 1013.60 1013.56 1013.48 1013.12 1012.64 1011.96 1011.40 1010.88 1010.52 1010.36 1009.64 1009.48 1009.40 1009.36 1009.24 1008.76 1008.48 1008.24 1007.84 1007.56 1007.32 1007.24 1007.20
1021.36 1021.16 1021.32 1020.80 1020.32 1020.16 1020.68 1020.24 1019.68 1019.08 1018.84 1018.92 1019.84 1020.80 1018.56 1019.84 1019.56 1018.96 1018.76 1018.64 1018.40 1018.08 1017.80 1017.44 1018.12 1017.48 1017.24 1017.04 1016.60 1016.28 1016.00 1015.80 1015.56 1015.56 1015.48 1015.32 1015.08 1014.76 1014.24 1014.04 1013.72 1013.36 1013.12 1013.12 1013.00 1012.56 1011.88 1011.12 1010.44 1010.04 1009.84 1009.56 1009.44 1009.40 1009.32 1009.12 1008.88 1008.28 1007.76 1007.40 1007.16 1007.16 1007.32
1022.24 1021.96 1022.12 1021.20 1020.20 1020.08 1020.44 1019.96 1019.64 1019.08 1019.00 1020.40 1019.92 1018.72 1020.24 1020.16 1019.52 1018.88 1018.72 1018.68 1018.60 1018.60 1018.44 1018.16 1017.96 1017.56 1017.12 1016.76 1016.36 1016.20 1016.00 1015.80 1015.56 1015.32 1015.32 1015.24 1014.92 1014.56 1014.08 1013.68 1013.60 1013.44 1013.20 1012.92 1012.48 1011.96 1011.40 1010.84 1010.48 1010.12 1009.76 1009.68 1009.64 1009.56 1009.56 1009.60 1009.12 1008.36 1007.92 1007.60 1007.36 1007.28 1007.72
1023.16 1023.40 1022.72 1022.00 1022.20 1019.96 1020.28 1019.72 1018.88 1018.92 1019.40 1018.84 1019.72 1019.92 1019.52 1019.24 1019.28 1019.24 1019.08 1019.04 1018.72 1018.64 1018.72 1018.36 1018.08 1017.64 1017.28 1017.12 1016.76 1016.28 1016.00 1015.80 1015.52 1015.20 1015.04 1015.08 1015.00 1014.64 1014.00 1013.36 1013.08 1013.16 1013.24 1013.04 1012.56 1011.96 1011.20 1010.64 1010.24 1010.12 1009.92 1009.64 1009.32 1009.28 1009.52 1009.44 1008.80 1008.32 1008.00 1007.76 1007.56 1007.32 1007.20
1021.60 1022.60 1022.56 1020.92 1019.12 1020.32 1019.88 1019.84 1020.52 1019.72 1019.88 1019.52 1019.60 1019.76 1019.92 1019.56 1019.56 1019.52 1019.68 1019.40 1019.20 1018.88 1018.76 1018.48 1018.20 1017.92 1017.44 1016.96 1016.96 1016.72 1016.20 1015.84 1015.48 1015.28 1015.08 1014.88 1014.88 1014.68 1014.32 1013.96 1013.28 1012.92 1013.00 1012.92 1012.56 1011.92 1011.24 1010.60 1010.20 1010.08 1010.16 1009.92 1009.44 1009.20 1009.16 1008.76 1008.44 1008.12 1007.84 1007.64 1007.48 1007.44 1007.12
1021.16 1020.32 1019.68 1018.80 1020.04 1019.80 1019.72 1019.60 1019.72 1019.76 1019.52 1019.68 1019.64 1019.76 1019.92 1020.04 1019.88 1019.60 1019.72 1019.68 1019.28 1019.12 1018.92 1018.48 1018.12 1017.96 1017.56 1017.12 1016.80 1016.96 1016.64 1016.04 1015.72 1015.48 1015.20 1015.00 1014.72 1014.60 1014.40 1014.08 1013.52 1013.00 1012.72 1012.48 1012.44 1011.92 1011.16 1010.56 1010.12 1010.12 1010.12 1010.16 1009.76 1009.40 1008.76 1008.36 1008.12 1008.16 1008.08 1007.84 1007.56 1007.32 1007.16
1020.76 1020.52 1020.08 1019.56 1019.52 1019.56 1019.68 1019.80 1019.76 1019.72 1019.56 1019.52 1019.64 1019.84 1020.00 1019.88 1019.84 1019.72 1019.84 1019.40 1019.28 1019.08 1018.76 1018.60 1018.12 1017.76 1017.48 1017.24 1016.72 1016.56 1016.52 1016.32 1015.76 1015.40 1015.16 1015.00 1014.72 1014.44 1014.24 1013.92 1013.52 1013.04 1012.48 1012.16 1011.92 1011.76 1011.24 1010.56 1010.20 1010.16 1010.24 1010.20 1010.12 1009.64 1008.96 1008.60 1008.64 1008.72 1008.36 1008.00 1007.84 1007.56 1007.16
1021.56 1020.20 1019.24 1019.60 1019.36 1019.32 1019.76 1019.72 1019.48 1019.48 1019.48 1019.64 1019.68 1019.84 1019.88 1019.80 1019.76 1019.64 1019.44 1019.28 1019.00 1018.80 1018.48 1018.44 1018.20 1017.88 1017.36 1017.12 1016.72 1016.28 1016.00 1016.04 1015.84 1015.44 1015.20 1014.88 1014.72 1014.40 1014.08 1013.76 1013.52 1013.16 1012.76 1012.24 1011.84 1011.52 1011.24 1010.76 1010.48 1010.32 1010.32 1010.28 1010.04 1009.76 1009.40 1008.88 1008.60 1008.48 1008.24 1008.08 1007.92 1007.76 1007.52
1021.36 1019.48 1018.64 1019.04 1019.52 1019.68 1019.60 1019.52 1019.44 1019.24 1019.24 1019.32 1019.40 1019.60 1019.64 1019.56 1019.44 1019.36 1019.16 1018.88 1018.68 1018.36 1018.24 1018.00 1017.96 1017.72 1017.36 1017.04 1016.52 1016.12 1015.80 1015.52 1015.40 1015.32 1015.04 1014.68 1014.44 1014.24 1013.96 1013.64 1013.44 1013.12 1012.80 1012.60 1012.16 1011.68 1011.40 1011.00 1010.72 1010.40 1010.12 1009.92 1009.88 1009.84 1009.52 1009.04 1008.68 1008.48 1008.32 1008.04 1007.88 1007.72 1007.52
1020.36 1020.08 1019.40 1019.24 1019.56 1019.20 1018.72 1018.80 1019.04 1019.20 1019.20 1019.20 1019.20 1019.24 1019.32 1019.24 1019.16 1018.92 1018.72 1018.60 1018.32 1018.08 1017.84 1017.60 1017.52 1017.44 1017.16 1016.88 1016.40 1016.00 1015.60 1015.40 1015.12 1014.88 1014.76 1014.48 1014.20 1013.96 1013.76 1013.40 1013.24 1013.04 1012.72 1012.44 1012.20 1011.92 1011.52 1011.04 1010.68 1010.32 1009.92 1009.80 1009.84 1009.72 1009.36 1009.00 1008.72 1008.68 1008.44 1008.04 1007.64 1007.36 1007.08
1020.48 1019.44 1017.72 1018.80 1018.72 1017.96 1017.76 1018.44 1018.36 1018.44 1018.68 1019.12 1019.12 1019.12 1019.16 1018.96 1018.88 1018.68 1018.60 1018.32 1018.00 1017.72 1017.44 1017.28 1017.12 1017.00 1016.84 1016.64 1016.36 1015.96 1015.40 1015.24 1015.12 1014.80 1014.56 1014.28 1013.96 1013.56 1013.40 1013.24 1013.04 1012.88 1012.56 1012.32 1012.08 1011.80 1011.44 1011.00 1010.68 1010.44 1010.12 1009.72 1009.56 1009.52 1009.28 1008.88 1008.64 1008.52 1008.32 1008.04 1007.68 1007.24 1006.76
1018.44 1017.32 1017.68 1018.36 1018.00 1018.20 1018.12 1018.08 1018.32 1018.60 1018.80 1019.12 1019.32 1019.24 1019.12 1018.84 1018.64 1018.56 1018.48 1018.24 1017.84 1017.48 1017.12 1016.88 1016.72 1016.48 1016.32 1016.20 1016.08 1015.80 1015.32 1014.84 1014.76 1014.76 1014.48 1014.20 1013.80 1013.32 1012.92 1012.88 1012.68 1012.52 1012.36 1012.16 1011.88 1011.64 1011.28 1010.96 1010.60 1010.32 1010.12 1009.88 1009.68 1009.44 1009.16 1008.72 1008.36 1008.20 1008.16 1008.04 1007.64 1007.16 1006.72
1017.20 1017.20 1017.28 1017.88 1018.52 1018.08 1017.44 1018.04 1018.36 1018.48 1018.68 1018.92 1018.96 1018.88 1018.84 1018.72 1018.48 1018.24 1018.20 1018.00 1017.80 1017.20 1016.72 1016.40 1016.24 1016.00 1015.72 1015.52 1015.48 1015.28 1014.88 1014.44 1014.20 1014.20 1014.16 1013.88 1013.52 1013.08 1012.68 1012.56 1012.40 1012.28 1012.12 1011.92 1011.76 1011.52 1011.16 1010.88 1010.64 1010.32 1010.00 1009.76 1009.68 1009.24 1008.76 1008.40 1008.12 1007.96 1007.88 1007.84 1007.56 1007.16 1006.72
1016.64 1016.52 1017.04 1017.72 1017.80 1017.64 1017.76 1017.96 1018.12 1018.32 1018.44 1018.56 1018.68 1018.60 1018.48 1018.28 1018.00 1017.84 1017.76 1017.44 1017.04 1016.72 1016.32 1015.96 1015.64 1015.52 1015.36 1015.04 1014.96 1014.76 1014.44 1013.92 1013.52 1013.32 1013.24 1013.08 1012.80 1012.56 1012.32 1012.12 1012.04 1012.00 1011.80 1011.64 1011.48 1011.24 1011.00 1010.72 1010.48 1010.20 1010.00 1009.64 1009.36 1009.00 1008.56 1008.08 1007.76 1007.76 1007.68 1007.56 1007.32 1006.96 1006.60
Wind_Speed
7 7 2 7 1 4 3 1 2 3 4 1 3 1 0 2 5 3 1 2 4 8 3 11 14 16 12 8 7 8 12 12 12 15 16 18 18 18 17 17 17 18 16 16 16 17 16 17 17 18 18 17 18 17 17 18 17 16 17 17 16 15 14
4 7 2 3 12 2 1 4 6 7 2 3 4 3 2 3 2 4 0 1 4 5 2 12 16 18 18 16 10 8 11 8 13 15 16 17 19 19 20 19 17 18 18 18 16 16 18 18 19 19 18 17 16 17 17 18 17 17 16 16 16 14 14
5 8 4 6 8 9 3 4 4 2 1 3 3 3 0 1 1 1 1 1 2 5 6 10 16 15 18 17 16 11 7 8 14 15 16 16 17 15 15 16 17 17 18 18 18 18 18 18 18 18 17 16 15 15 16 18 19 19 18 15 14 13 13
5 5 7 5 10 11 7 1 7 5 1 1 2 3 3 5 1 2 4 4 1 2 3 7 10 13 13 17 16 16 13 12 15 14 15 15 15 15 16 17 17 18 19 19 19 19 19 19 18 17 17 15 17 17 17 16 16 15 16 16 16 15 15
6 4 4 3 4 6 10 13 10 8 4 3 2 1 1 2 4 3 3 2 1 4 2 6 10 10 12 13 15 14 14 10 15 16 15 15 16 16 16 17 17 18 18 18 18 17 17 15 15 15 16 18 17 16 16 17 18 17 17 17 15 14 13
5 3 1 3 4 3 8 8 9 5 10 8 5 3 5 4 3 1 3 3 5 6 1 8 7 7 12 13 14 14 15 16 11 14 14 15 15 17 17 17 17 17 17 17 17 16 14 14 15 17 17 15 16 16 16 17 16 16 17 16 14 14 13
4 3 4 6 5 7 11 11 8 7 4 4 4 1 4 4 3 1 3 6 1 2 3 9 8 9 13 14 17 16 17 15 15 9 10 13 16 17 17 17 17 17 17 17 18 18 18 18 17 18 16 16 17 17 17 16 17 17 16 16 15 13 13
4 3 2 5 11 5 5 7 8 9 8 6 2 3 3 1 7 6 6 1 3 2 9 8 9 9 11 14 16 17 16 18 17 11 5 4 4 5 7 10 11 12 13 14 13 15 16 16 16 17 17 17 16 16 17 16 18 18 16 15 14 14 14
5 5 7 8 3 7 5 4 6 6 6 6 5 1 1 3 3 5 1 1 4 10 10 7 8 11 15 14 16 17 19 19 19 21 10 4 4 4 1 3 5 6 9 13 15 17 17 17 16 16 17 16 17 17 16 16 17 17 16 14 14 14 14
2 2 2 3 7 8 4 1 6 5 8 9 9 5 6 4 5 6 1 3 8 11 7 11 11 13 13 14 16 16 17 18 20 18 18 18 15 11 9 8 4 2 6 7 8 11 13 15 15 15 16 16 16 16 17 17 16 15 16 14 15 14 14
4 3 1 2 2 4 4 10 6 8 5 3 2 1 2 2 5 6 3 1 9 13 12 13 15 11 13 14 17 18 18 19 18 17 17 15 15 16 15 12 10 11 8 1 4 3 5 7 9 10 12 14 15 15 16 16 15 15 15 14 14 14 14
1 3 2 4 3 3 4 6 9 7 6 4 3 1 3 1 4 5 3 2 8 9 9 11 12 13 10 11 11 13 15 14 14 14 16 19 19 19 17 18 17 14 11 11 2 7 6 6 6 7 8 10 12 12 14 14 14 14 13 14 14 14 14
0 2 2 2 1 1 2 3 6 9 7 4 3 3 4 2 1 7 9 7 6 7 7 9 10 10 10 10 12 9 10 13 14 17 19 19 18 17 18 17 16 16 15 12 13 10 1 6 9 8 9 9 9 10 10 12 13 14 14 14 14 15 14
3 3 3 2 3 3 4 3 7 8 8 6 5 6 5 4 5 8 10 7 8 3 7 8 9 8 9 9 8 11 15 16 15 15 17 16 16 16 15 15 15 14 14 15 14 12 12 10 3 4 9 9 10 11 11 12 12 12 12 13 14 15 15
3 4 4 3 3 2 3 5 5 7 8 6 5 4 5 4 5 7 7 3 4 2 6 6 6 6 6 10 16 14 13 15 16 16 16 15 14 14 14 14 14 14 14 14 14 14 14 12 10 8 4 4 9 10 11 12 13 12 12 13 14 15 15
4 3 4 6 5 4 3 3 4 5 3 3 4 1 3 3 4 5 3 2 3 7 10 5 6 8 12 13 11 12 12 14 15 15 15 15 15 15 14 13 14 14 14 15 14 14 13 12 12 8 6 7 2 8 9 11 12 12 13 14 15 15 15
2 3 4 6 5 5 5 4 2 1 4 3 4 0 3 4 2 3 3 1 2 5 8 7 7 9 9 11 12 10 12 12 13 13 13 13 14 15 15 16 14 12 12 12 13 13 12 11 12 11 7 5 6 7 3 4 3 2 11 14 14 14 15
2 4 5 5 5 4 4 1 3 2 4 3 3 1 3 6 7 2 4 1 3 6 8 8 7 8 8 7 6 7 7 9 11 11 11 11 12 13 14 15 15 14 11 11 11 12 11 11 10 11 8 5 2 3 2 1 7 7 7 9 8 13 14
2 2 5 5 2 8 2 4 3 2 3 4 3 3 1 4 7 7 4 6 7 5 3 4 6 2 5 5 10 11 11 10 10 10 10 11 12 12 12 13 15 15 15 14 14 15 13 12 11 10 9 9 5 3 1 1 3 8 10 10 6 10 10
1 3 1 0 8 2 6 10 4 2 2 4 0 2 3 6 7 7 6 4 3 4 4 6 6 4 6 5 9 11 9 8 9 11 11 12 10 11 11 12 12 13 14 14 13 13 13 11 10 9 10 9 8 6 2 0 1 2 3 9 12 13 12
2 3 4 8 5 9 6 2 3 3 1 2 1 1 1 2 3 4 4 4 2 4 5 6 10 8 7 1 6 10 8 9 8 7 8 11 11 9 9 10 11 9 11 13 15 13 13 13 9 10 9 9 8 6 3 2 1 2 3 6 9 11 13
4 2 3 4 3 1 4 0 2 3 3 4 2 1 4 1 4 4 4 5 2 2 3 6 9 10 3 2 2 6 8 6 8 9 9 8 9 11 10 8 9 9 8 9 13 13 14 12 10 10 10 8 6 5 4 3 2 3 4 6 7 8 10
2 1 3 3 4 6 2 5 6 7 2 4 2 2 4 2 5 6 5 6 6 4 4 4 5 7 5 4 4 4 5 6 5 7 9 10 9 8 10 12 10 11 10 10 11 13 14 13 6 8 8 9 7 6 6 7 5 3 3 5 5 6 7
3 3 3 6 3 3 3 4 6 8 7 2 2 3 5 2 8 7 6 7 6 6 5 3 4 5 5 6 6 7 6 4 3 3 7 10 11 12 9 9 12 10 9 9 11 13 14 15 13 7 8 8 7 6 7 7 6 6 6 5 4 6 6
4 7 5 3 4 1 1 3 6 8 4 0 4 7 0 5 8 7 6 6 6 5 7 5 6 1 2 5 7 7 6 6 6 2 2 5 7 11 12 9 10 10 11 9 9 11 11 12 12 10 6 6 7 7 7 5 7 8 9 9 9 4 5
4 4 5 6 4 1 1 3 6 4 1 2 7 2 1 4 5 6 6 7 5 4 5 7 6 7 6 7 7 7 6 5 6 5 3 4 7 9 10 10 7 8 10 12 12 12 12 12 11 9 9 8 5 5 6 7 7 9 9 9 10 8 7
1 0 3 4 7 2 1 5 4 2 1 3 1 6 3 0 3 5 6 5 8 6 6 6 7 8 9 5 6 9 9 8 7 7 6 4 5 9 12 15 12 9 9 11 13 13 12 13 10 8 9 10 10 8 7 6 7 8 8 9 9 9 9
2 4 5 5 2 2 1 3 1 2 2 5 5 3 5 2 2 3 4 5 6 9 9 9 8 7 9 8 3 5 8 8 9 7 6 5 4 6 7 9 12 11 9 8 12 12 12 11 11 8 8 9 10 10 11 9 8 8 9 9 8 8 8
4 5 4 3 3 2 2 2 4 3 6 2 2 2 3 3 2 2 4 6 7 6 8 10 9 8 6 9 8 4 5 9 8 9 8 7 7 6 7 8 10 10 11 11 11 12 13 12 11 10 9 9 10 12 11 11 12 11 10 9 10 10 8
3 6 10 9 8 5 2 2 3 4 3 2 2 3 4 3 3 3 6 6 7 8 6 7 8 9 9 10 10 8 4 5 8 8 8 6 6 6 6 7 8 9 11 12 12 11 13 13 11 10 10 9 10 10 11 11 10 11 10 10 9 9 9
2 5 1 2 5 1 3 5 5 3 3 2 2 4 4 5 5 6 5 7 8 7 7 7 7 9 10 11 11 9 7 4 5 8 8 8 6 6 7 7 7 8 8 11 13 13 13 12 11 11 11 8 7 8 9 11 11 10 9 9 9 8 9
4 9 4 4 3 5 6 6 5 2 3 4 4 3 5 6 6 6 7 7 9 6 7 6 7 8 7 10 11 10 8 8 5 6 8 9 8 6 7 7 6 7 6 7 10 13 12 11 11 11 11 10 8 8 8 8 9 10 10 9 8 8 9
6 6 10 10 7 8 7 4 4 3 2 5 8 7 8 8 9 9 8 6 8 8 9 8 8 8 7 7 10 12 11 8 7 7 8 9 9 8 7 7 5 6 6 7 8 10 12 11 11 11 12 11 9 8 7 7 7 9 10 12 10 10 9
6 8 7 3 2 6 4 4 5 4 3 3 7 8 9 9 10 10 12 11 8 9 9 9 9 10 8 7 7 11 13 10 7 8 8 9 11 10 8 7 6 6 6 7 8 10 10 10 10 10 11 11 10 8 8 7 7 8 10 10 10 10 9
8 9 8 5 6 5 7 6 4 4 3 3 5 8 9 10 10 10 11 13 13 11 10 8 10 11 10 9 7 10 12 12 9 7 8 9 10 11 9 7 7 7 6 6 7 9 10 9 10 11 10 10 10 10 8 8 8 9 9 10 9 8 8
7 4 4 6 5 7 6 4 5 5 4 4 6 7 8 9 11 10 11 11 13 13 12 11 10 11 11 9 8 11 12 13 13 10 8 9 10 11 9 7 7 7 8 6 6 8 9 8 9 10 11 10 10 11 10 10 8 8 8 8 9 8 8
8 4 4 6 7 8 6 4 4 4 4 4 6 7 7 9 10 9 11 12 12 13 13 12 11 9 11 12 10 11 12 13 14 13 11 10 11 9 8 8 7 7 7 6 6 7 7 8 9 10 10 11 10 10 11 11 9 8 8 8 9 9 8
Wind_Direction
21 344 316 13 92 144 264 77 357 294 293 80 85 32 301 120 53 251 203 326 296 305 5 17 358 0 351 339 286 234 218 201 186 193 193 196 196 194 194 196 196 195 193 193 190 188 188 188 188 190 188 185 185 183 185 189 189 187 188 189 190 190 191
316 340 265 100 50 327 51 47 282 290 196 146 133 201 344 63 135 260 65 162 317 11 245 342 356 357 344 337 328 271 252 200 194 201 198 197 196 196 196 194 193 192 194 192 192 190 189 189 190 190 188 185 185 185 185 186 188 189 192 190 191 190 189
288 340 24 346 357 28 110 181 294 65 228 218 322 92 116 77 249 273 340 302 65 44 322 336 353 349 337 329 325 317 258 207 209 207 205 202 199 197 193 193 192 193 194 192 192 192 190 190 190 190 188 183 184 188 188 188 189 190 189 190 191 192 192
316 29 27 28 315 339 22 66 31 344 105 103 36 203 177 114 219 101 281 47 78 304 308 307 317 336 333 338 335 329 303 225 211 209 204 197 194 197 196 195 195 195 194 192 191 190 188 187 188 189 187 185 186 188 187 192 192 189 188 191 190 193 194
7 23 9 358 335 347 349 29 16 14 356 264 229 254 88 170 167 168 172 48 291 278 255 331 316 334 344 344 335 328 321 265 223 209 200 194 194 195 197 196 195 194 194 192 191 191 189 185 184 185 187 189 189 186 189 190 190 191 193 194 192 195 191
35 246 321 341 317 31 67 64 52 339 11 7 50 280 353 29 39 215 108 189 261 266 352 340 324 346 358 354 352 346 341 334 248 222 203 194 194 198 196 195 192 193 194 191 189 188 187 184 183 186 188 189 187 189 191 190 192 193 193 194 195 193 193
284 283 325 18 59 77 77 62 29 6 53 45 61 43 294 3 315 243 197 127 242 226 1 348 348 3 1 6 6 360 354 350 341 245 222 205 196 194 195 193 192 192 191 189 187 186 187 188 186 185 187 189 190 191 190 190 192 196 195 194 193 191 193
304 336 253 38 46 46 24 28 24 13 19 27 336 223 244 320 326 27 352 106 229 316 359 353 5 15 14 17 16 3 5 3 354 328 172 211 227 229 211 198 194 194 191 187 185 187 188 189 186 187 189 189 190 190 191 190 194 196 194 194 193 192 193
344 343 343 350 357 63 74 323 350 357 340 352 322 135 2 140 50 334 234 167 348 312 336 341 5 9 18 18 19 17 15 11 7 13 5 56 89 93 110 199 206 195 190 189 192 190 190 190 189 188 188 190 190 191 191 192 195 195 194 193 192 193 194
34 334 344 310 324 338 328 337 339 358 353 351 12 13 341 58 312 352 91 310 275 294 332 353 7 8 6 12 26 27 25 20 17 13 25 25 23 25 49 48 47 214 207 210 208 200 196 193 192 188 189 189 190 190 193 192 193 193 194 192 193 193 193
177 204 212 263 286 332 342 324 342 328 343 335 86 107 65 20 312 325 234 112 312 322 354 352 355 8 8 5 15 29 26 19 19 19 20 28 28 26 25 38 45 42 31 152 190 237 222 219 209 198 194 192 192 192 193 193 193 193 192 190 191 193 194
186 198 216 260 290 286 296 328 322 320 312 321 358 80 251 151 29 323 258 57 347 313 341 355 352 352 3 4 357 13 26 25 25 19 17 24 28 23 22 24 25 30 32 15 23 164 170 191 201 207 203 199 197 195 195 194 193 192 191 191 192 194 194
167 237 253 299 352 359 317 306 310 314 304 303 294 260 207 116 179 234 281 315 323 305 358 356 6 350 360 4 359 349 24 22 21 25 23 22 21 18 21 17 15 19 19 19 19 4 23 169 182 191 194 195 195 199 197 195 194 195 191 191 193 195 196
330 310 311 2 44 317 327 312 302 299 302 280 247 252 243 202 227 239 265 282 265 342 350 17 11 358 2 8 11 9 24 23 17 23 24 20 18 17 14 12 13 12 13 16 12 13 14 7 357 185 183 188 190 192 195 193 196 194 188 195 195 197 199
316 306 323 355 348 315 297 297 285 281 287 296 265 241 263 246 261 263 257 270 290 351 355 22 15 15 0 23 29 23 12 20 22 23 22 18 15 11 9 9 11 10 13 10 11 11 3 359 0 358 339 192 181 190 189 190 192 190 190 196 197 198 203
319 307 350 327 328 316 262 258 266 276 302 321 320 351 281 187 215 253 280 307 310 324 349 360 16 23 30 29 21 26 14 16 22 19 17 12 9 6 1 1 7 11 9 10 7 4 354 349 345 350 356 339 190 180 187 190 190 189 192 195 196 200 203
270 273 316 335 330 351 338 302 185 285 276 294 291 213 32 36 284 248 250 101 336 319 348 1 13 31 28 30 22 12 16 19 24 16 12 10 7 4 0 356 356 6 8 6 360 351 351 345 343 337 328 2 8 3 38 56 43 217 205 196 196 200 201
243 295 341 331 7 318 243 221 352 295 290 316 301 319 1 359 23 58 109 68 331 6 9 6 0 39 40 35 31 33 20 9 15 10 12 10 6 3 358 350 349 351 358 357 350 342 340 336 336 328 322 326 4 81 45 337 117 100 55 335 274 214 203
283 316 7 13 313 240 247 308 288 306 348 44 103 81 53 30 22 30 50 36 22 2 346 346 337 71 83 52 38 24 19 19 18 358 355 11 10 360 355 347 342 343 345 346 343 341 340 339 332 332 342 348 353 350 55 158 182 153 157 168 213 282 250
48 39 70 108 242 220 298 291 292 310 62 14 285 247 15 27 40 20 27 30 8 346 348 340 306 258 167 92 54 30 12 22 17 7 351 350 10 1 345 339 336 340 340 334 332 328 320 330 328 332 331 332 337 343 329 64 39 340 215 191 195 195 222
172 200 168 232 330 336 337 6 12 25 45 344 63 250 258 50 20 39 1 337 6 350 355 341 325 311 207 192 57 30 6 358 6 9 356 342 347 353 340 332 328 330 332 329 323 322 320 319 316 322 319 320 323 325 333 321 298 199 218 255 238 213 210
145 175 284 324 9 231 271 247 319 347 308 283 260 126 281 4 13 16 3 339 348 1 357 356 338 322 97 166 23 12 352 345 348 343 350 350 346 340 336 334 328 329 330 326 319 313 307 305 320 321 319 317 315 321 334 316 256 232 226 235 237 238 232
88 165 201 213 204 236 212 274 292 289 266 254 257 118 268 128 15 359 349 341 330 343 356 5 357 23 28 302 309 327 341 335 341 342 336 339 338 337 335 333 339 336 333 326 319 310 308 308 330 325 332 323 331 344 343 345 337 309 246 232 233 232 238
185 181 214 243 204 232 238 259 289 299 304 278 191 314 263 8 349 334 344 339 331 321 340 22 47 58 356 311 310 316 319 321 312 322 323 331 336 332 333 338 335 330 329 327 324 322 323 316 321 338 341 332 332 344 337 327 332 334 334 321 266 241 234
236 224 253 285 305 347 155 262 290 298 285 95 263 227 274 344 325 322 332 336 346 344 330 353 343 257 265 259 271 287 300 321 318 290 277 298 314 321 321 329 335 332 336 332 320 313 304 303 314 325 336 341 342 338 335 331 342 340 335 329 320 302 288
213 225 237 249 257 226 282 268 261 250 20 260 223 221 343 265 302 314 333 333 342 359 339 331 316 300 288 286 292 298 297 296 293 294 292 301 313 312 309 318 334 340 333 327 325 322 313 313 317 322 328 341 336 335 331 334 335 328 326 324 319 313 220
58 8 256 270 257 142 52 332 335 26 168 217 332 303 300 318 315 336 331 336 322 341 327 316 309 309 310 304 298 304 305 302 300 305 311 314 314 319 325 325 333 341 337 330 328 322 320 320 323 318 334 336 338 334 330 328 324 324 321 315 310 304 297
183 199 211 213 175 159 265 84 204 244 231 283 298 297 307 357 334 331 324 317 317 320 317 312 309 303 300 304 297 301 304 303 302 301 297 292 292 300 301 304 313 327 325 327 327 318 319 322 324 327 340 334 330 325 322 329 327 327 321 312 300 294 295
169 208 217 231 170 167 209 184 211 247 273 266 279 312 278 304 303 287 300 297 302 304 300 301 302 302 293 292 301 297 284 299 299 301 298 288 290 291 299 303 308 319 324 320 325 321 323 322 330 334 335 331 328 319 322 331 334 329 319 311 308 307 304
279 263 241 261 278 270 253 229 227 256 256 260 290 292 302 268 266 282 284 285 287 288 281 284 297 297 299 299 299 299 284 277 294 296 294 281 272 279 285 297 309 317 320 321 318 322 324 325 327 331 331 327 321 318 318 321 320 310 302 305 306 306 303
36 283 344 192 230 223 251 266 267 245 225 249 275 291 275 286 288 281 265 272 276 277 274 265 270 281 294 296 292 291 293 278 282 296 297 289 272 276 288 287 298 308 321 320 319 321 323 323 322 322 322 319 318 318 314 315 311 303 302 306 308 306 305
181 243 241 250 238 241 249 249 246 242 291 306 300 279 280 283 282 277 277 275 273 266 267 264 267 268 274 286 292 294 290 291 283 285 292 291 288 273 269 279 282 293 302 305 309 314 314 314 314 313 314 321 322 312 306 308 312 312 307 301 297 295 294
259 298 278 266 286 275 263 217 196 220 270 306 306 309 310 307 303 301 291 272 276 272 268 270 269 269 259 263 282 288 290 283 286 290 290 290 284 277 279 281 281 281 293 302 304 301 303 306 308 311 312 314 315 311 308 309 314 310 302 296 291 287 286
270 243 253 123 302 284 290 239 238 285 295 292 300 309 309 309 308 307 305 299 286 275 270 270 269 267 264 255 263 278 283 278 273 284 286 288 288 283 267 265 270 272 277 285 293 298 299 304 305 305 307 310 312 310 303 305 306 307 302 293 287 284 285
239 241 233 196 202 250 249 244 256 255 255 260 276 286 290 294 294 297 300 302 299 289 279 266 269 271 270 263 256 265 274 278 270 263 272 278 281 281 277 274 278 275 275 279 288 296 299 302 306 307 305 305 307 306 308 306 309 306 297 290 282 279 279
246 228 209 183 175 218 246 222 220 238 235 236 261 268 273 278 285 293 294 290 291 289 284 277 263 268 271 265 258 262 269 275 279 271 258 259 261 268 271 259 263 274 280 282 285 292 295 298 303 306 304 304 301 307 313 316 307 293 280 277 281 280 278
221 208 191 196 211 236 244 245 255 258 260 251 259 266 270 283 287 288 289 292 287 286 286 284 281 269 270 271 263 262 266 271 272 274 269 264 263 256 248 250 254 259 263 269 275 279 285 294 302 303 303 301 303 309 315 313 306 295 278 267 271 273 274